[[{"header":{"parameterUnit":"m.s-1","parameterCategory":1,"la1":30.2991,"la2":30.254,"lo1":-89.0895,"lo2":-89.0444,"dy":0.0017,"dx":0.0017,"nx":28,"ny":28,"refTime":"2025-08-19T21:00:00:Z","depth":0,"parameterNumber":2,"parameterNumberName":"U-component_of_WINDS"},"data":[0,0,0,0,0,0,0,0,0,0,0,0,0,0,0,0,0,0,0,0,0,0,0,0,0,0,0,0,0,0,0,0,0,0,0,0,0,0,0,0,0,0,0,0,0,0,0,0,0,0,0,0,0,0,0,0,0,0,1.0812,1.0813,0,1.0926,1.0928,1.0929,1.0956,1.0955,1.0954,1.0953,1.1075,1.1078,1.1082,0,0,0,0,0,0,0,0,0,0,0,0,0,1.0619,1.0623,1.0811,1.0813,1.0814,1.0926,1.0928,1.0929,1.0956,1.0955,1.0954,1.0953,1.1073,1.1078,1.1083,0,0,0,0,0,0,0,0,0,0,0,0,0,1.0715,1.0624,1.0811,1.0841,1.0845,1.0926,1.0928,1.093,1.0956,1.0955,1.0954,1.0952,1.1072,1.1078,1.1083,1.1144,0,0,1.1102,1.1104,0,0,0,0,0,0,0,0,1.071,1.0722,1.0835,1.0839,1.0843,1.0925,1.0905,1.1002,1.0956,1.0914,1.0953,1.0952,1.1026,1.1036,1.106,1.115,1.1155,1.1102,1.1106,1.1108,1.111,0,0,0,0,0,0,0,1.0703,1.0718,1.0857,1.0837,1.0842,1.085,1.0862,1.0923,1.0975,1.0917,1.092,1.0933,1.1028,1.1054,1.1063,1.1157,1.1102,1.1107,1.1111,1.1113,1.1304,1.1306,0,0,0,0,0,0,1.0691,1.0712,1.0853,1.086,1.0772,1.0854,1.0868,1.09,1.0975,1.0985,1.0934,1.0933,1.1045,1.1056,1.1068,1.1145,1.1108,1.1114,1.1117,1.1303,1.1305,1.1306,0,0,0,0,0,0,1.0687,1.0703,1.0849,1.0787,1.0806,1.0859,1.0895,1.0903,1.0929,1.0987,1.0997,1.095,1.1044,1.1059,1.1125,1.115,1.1117,1.1122,1.1301,1.1303,1.1306,1.13,0,0,0,0,0,0,1.0681,1.0701,1.0724,1.0787,1.0809,1.0903,1.0896,1.0906,1.0939,1.094,1.1005,1.1015,1.1044,1.1116,1.1131,1.1157,1.1127,1.1299,1.1302,1.1305,1.1298,1.1301,1.1304,0,0,0,0,0,1.0674,1.0718,1.0725,1.0742,1.0838,1.0904,1.0917,1.0949,1.0941,1.0965,1.1002,1.1013,1.1144,1.1123,1.114,1.1168,1.1298,1.1301,1.1305,1.1296,1.1301,1.1304,0,0,0,0,0,0,1.0658,1.0727,1.0735,1.0801,1.0847,1.0909,1.094,1.0952,1.1002,1.1001,1.104,1.1054,1.1118,1.115,1.1124,1.1232,1.1221,1.1228,1.1209,1.1213,1.1216,1.1208,1.1132,0,0,0,0,0,1.0662,1.0708,1.0767,1.0819,1.0842,1.0887,1.0917,1.0937,1.0986,1.1006,1.1048,1.1097,1.1149,1.1183,1.1234,1.1302,1.1318,1.133,1.1333,1.1336,1.1342,1.1382,1.1388,1.1317,1.1317,1.1317,0,0,1.0671,1.0714,1.0742,1.0817,1.0855,1.0904,1.0903,1.0954,1.0992,1.1014,1.1079,1.1112,1.1169,1.1236,1.1268,1.1265,1.1365,1.134,1.1341,1.1346,1.1386,1.1393,1.1399,1.132,1.1319,1.1319,0,0,1.0712,1.0749,1.0798,1.0835,1.0892,1.0922,1.0933,1.0994,1.1016,1.1082,1.11,1.1146,1.1234,1.1274,1.1306,1.1364,1.1376,1.1379,1.1397,1.1435,1.1441,1.1446,1.1468,1.1475,1.1385,1.1385,1.1385,0,1.0717,1.079,1.0821,1.0872,1.0906,1.0927,1.0978,1.1013,1.1084,1.1107,1.1102,1.1214,1.1254,1.1332,1.1346,1.1371,1.1387,1.1373,1.1437,1.1443,1.1448,1.147,1.1478,1.1385,1.1385,1.1385,1.1385,0,1.0793,1.0844,1.0876,1.0944,1.0981,1.1031,1.1071,1.1105,1.1123,1.1154,1.1221,1.1269,1.1331,1.1351,1.1369,1.1432,1.1428,1.1429,1.142,1.1455,1.1476,1.1484,1.1385,1.1385,1.1385,1.1385,0,0,1.0829,1.0912,1.0924,1.0955,1.102,1.106,1.1112,1.1172,1.1201,1.1249,1.1295,1.137,1.1371,1.1408,1.143,1.1464,1.1508,1.1461,1.1463,1.147,1.1583,1.1583,1.1591,1.1516,1.1518,1.1519,1.1579,0,1.0879,1.0972,1.1002,1.1079,1.1128,1.1149,1.1195,1.124,1.127,1.1317,1.1351,1.1404,1.1401,1.1423,1.1457,1.1495,1.1532,1.1491,1.1561,1.1563,1.1547,1.1602,1.1602,1.1656,1.1587,1.1588,1.1589,0,1.0951,1.1,1.1082,1.1141,1.1162,1.1202,1.126,1.1304,1.1356,1.1376,1.1416,1.1436,1.1493,1.1479,1.1559,1.1531,1.1561,1.1584,1.1587,1.1596,1.1579,1.1614,1.1674,1.1682,1.1602,1.1601,1.16,0,1.097,1.1056,1.1117,1.1143,1.1213,1.1241,1.1272,1.1323,1.1357,1.1408,1.1431,1.1488,1.1519,1.1564,1.1599,1.1585,1.1676,1.1665,1.1696,1.1695,1.1715,1.1714,1.1782,1.1732,1.1732,1.1732,1.1732,0,1.1025,1.1074,1.1127,1.1164,1.1221,1.1256,1.1312,1.1344,1.1389,1.1434,1.1456,1.1499,1.1542,1.1591,1.1619,1.1682,1.1695,1.1714,1.1721,1.1713,1.1711,1.1735,1.1732,1.1734,1.1734,1.1733,1.1733,0,1.1056,1.1093,1.1161,1.1222,1.1238,1.1278,1.1331,1.1369,1.14,1.1457,1.1472,1.1521,1.158,1.1619,1.1694,1.1713,1.1781,1.1787,1.1763,1.1767,1.1797,1.1794,1.1884,1.1898,1.1837,1.1837,1.1838,0,1.1089,1.1128,1.1193,1.1224,1.1255,1.1305,1.134,1.1376,1.1412,1.1475,1.1505,1.1565,1.1614,1.1707,1.175,1.1808,1.1816,1.1843,1.1825,1.1816,1.1818,1.1816,1.1821,1.1847,1.1847,1.1848,1.1848,0,1.1144,1.1161,1.121,1.1265,1.1306,1.1352,1.1398,1.1423,1.1467,1.1506,1.1565,1.1604,1.168,1.1739,1.1801,1.1834,1.1849,1.1853,1.1864,1.1857,1.1842,1.1852,1.1773,1.1851,1.1851,1.1851,1.1851,1.185,1.1179,1.1215,1.1266,1.1321,1.1359,1.1401,1.144,1.1476,1.1526,1.159,1.1608,1.167,1.1723,1.1807,1.1842,1.1892,1.1889,1.1904,1.1908,1.1912,1.1913,1.1832,1.1903,1.1903,1.1903,1.1903,1.1903,0,1.1237,1.1271,1.132,1.1384,1.1427,1.1435,1.1487,1.1523,1.1577,1.1624,1.1672,1.1741,1.1799,1.1846,1.1906,1.1938,1.1946,1.1952,1.1951,1.1959,1.1911,1.1896,1.1945,1.1945,1.1945,1.1945,1.1945,1.1944,1.1272,1.1334,1.1356,1.1438,1.1472,1.1532,1.1561,1.1601,1.1639,1.1715,1.1762,1.1793,1.1841,1.1905,1.1959,1.1971,1.1993,1.1998,1.2013,1.1967,1.1962,1.1958,1.1945,1.2002,1.2002,1.2057,1.2058,1.2058]},{"header":{"parameterUnit":"m.s-1","parameterCategory":1,"la1":30.2991,"la2":30.254,"lo1":-89.0895,"lo2":-89.0444,"dy":0.0017,"dx":0.0017,"nx":28,"ny":28,"refTime":"2025-08-19T21:00:00:Z","depth":0,"parameterNumber":3,"parameterNumberName":"V-component_of_WINDS"},"data":[0,0,0,0,0,0,0,0,0,0,0,0,0,0,0,0,0,0,0,0,0,0,0,0,0,0,0,0,0,0,0,0,0,0,0,0,0,0,0,0,0,0,0,0,0,0,0,0,0,0,0,0,0,0,0,0,0,0,1.7144,1.7144,0,1.7169,1.7169,1.7169,1.7158,1.7157,1.7156,1.7156,1.718,1.7181,1.7182,0,0,0,0,0,0,0,0,0,0,0,0,0,1.7085,1.7086,1.7144,1.7144,1.7145,1.7169,1.7169,1.7169,1.7158,1.7157,1.7156,1.7156,1.7179,1.7181,1.7182,0,0,0,0,0,0,0,0,0,0,0,0,0,1.711,1.7086,1.7144,1.7142,1.7142,1.7169,1.7169,1.7169,1.7158,1.7157,1.7156,1.7155,1.7179,1.7181,1.7182,1.7212,0,0,1.7188,1.7189,0,0,0,0,0,0,0,0,1.7108,1.7112,1.7142,1.7142,1.7142,1.7159,1.7157,1.7184,1.7158,1.7152,1.7156,1.7155,1.7174,1.7176,1.7182,1.7213,1.7214,1.7188,1.7189,1.719,1.719,0,0,0,0,0,0,0,1.7107,1.7111,1.7154,1.7142,1.7143,1.7139,1.7141,1.7162,1.7168,1.7152,1.7152,1.7155,1.7173,1.7181,1.7183,1.7214,1.7188,1.719,1.7191,1.7191,1.7267,1.7268,0,0,0,0,0,0,1.7105,1.711,1.7153,1.7155,1.7123,1.7141,1.7143,1.7155,1.7167,1.7168,1.7155,1.7154,1.7178,1.7181,1.7184,1.7216,1.719,1.7192,1.7193,1.7266,1.7267,1.7268,0,0,0,0,0,0,1.7104,1.7109,1.7152,1.7132,1.7137,1.7143,1.7155,1.7156,1.7163,1.717,1.717,1.7162,1.7177,1.7181,1.7204,1.7217,1.7192,1.7194,1.7265,1.7266,1.7268,1.7284,0,0,0,0,0,0,1.7102,1.7109,1.7121,1.7132,1.7138,1.7173,1.7156,1.7157,1.7166,1.7164,1.7176,1.7177,1.7177,1.7202,1.7206,1.7219,1.7195,1.7264,1.7266,1.7267,1.7282,1.7286,1.7289,0,0,0,0,0,1.71,1.7125,1.7122,1.7127,1.7154,1.7174,1.7177,1.7177,1.7167,1.7179,1.7183,1.7176,1.7215,1.7204,1.7209,1.7223,1.7263,1.7265,1.7267,1.7281,1.7285,1.7289,0,0,0,0,0,0,1.7116,1.7127,1.7123,1.7153,1.7162,1.7172,1.7187,1.7182,1.7195,1.7193,1.7192,1.7195,1.7218,1.7223,1.721,1.725,1.7237,1.7241,1.7246,1.725,1.7253,1.7251,1.7197,0,0,0,0,0,1.7123,1.7139,1.7148,1.7173,1.7178,1.7182,1.7191,1.7189,1.7199,1.7204,1.7209,1.7219,1.7233,1.7242,1.7256,1.7283,1.7284,1.7295,1.7298,1.7301,1.7303,1.7315,1.7319,1.7275,1.7275,1.7275,0,0,1.7137,1.7145,1.7156,1.7176,1.7184,1.7199,1.7185,1.7203,1.7214,1.7206,1.7228,1.7232,1.7242,1.7267,1.7278,1.7272,1.7315,1.7303,1.7306,1.7306,1.7318,1.7322,1.7325,1.7276,1.7276,1.7276,0,0,1.7171,1.718,1.72,1.7207,1.7219,1.722,1.7225,1.7235,1.7238,1.7259,1.7253,1.7266,1.7291,1.7297,1.7304,1.7337,1.7331,1.7342,1.7358,1.737,1.7373,1.7376,1.7386,1.7389,1.7344,1.7344,1.7344,0,1.7187,1.7211,1.7211,1.7228,1.7236,1.723,1.7249,1.7256,1.7271,1.7276,1.7269,1.7298,1.7305,1.7329,1.7337,1.7344,1.7348,1.734,1.7373,1.7376,1.7379,1.7388,1.7391,1.7345,1.7345,1.7345,1.7345,0,1.7229,1.7246,1.726,1.7274,1.7284,1.7303,1.7304,1.7313,1.7311,1.7313,1.7334,1.7341,1.7355,1.7361,1.7359,1.7385,1.738,1.7373,1.736,1.7384,1.7392,1.7396,1.7347,1.7347,1.7346,1.7346,0,0,1.7274,1.7285,1.7291,1.7295,1.7306,1.7319,1.7336,1.7349,1.7356,1.7366,1.7379,1.7399,1.7392,1.7399,1.7398,1.7409,1.7431,1.74,1.74,1.7404,1.7457,1.746,1.7465,1.7428,1.7428,1.7429,1.7455,0,1.7306,1.7336,1.7335,1.7362,1.7376,1.7369,1.7383,1.739,1.7393,1.7404,1.7406,1.7419,1.741,1.7414,1.7424,1.7426,1.7442,1.7425,1.7438,1.7438,1.7434,1.7469,1.7474,1.7498,1.7458,1.7459,1.7459,0,1.7348,1.7358,1.7386,1.7392,1.7398,1.7411,1.7422,1.7433,1.7441,1.7441,1.7448,1.7445,1.746,1.7447,1.7468,1.7456,1.7461,1.7463,1.7464,1.7464,1.7449,1.7468,1.7506,1.7509,1.7465,1.7465,1.7464,0,1.7373,1.7395,1.7414,1.7419,1.7427,1.7436,1.744,1.7447,1.7453,1.7463,1.7467,1.7478,1.7483,1.7491,1.749,1.7481,1.7509,1.7497,1.7509,1.7509,1.7514,1.7513,1.7551,1.7521,1.7521,1.752,1.752,0,1.7408,1.7425,1.7425,1.7437,1.7455,1.7453,1.7471,1.7474,1.7479,1.749,1.7485,1.7495,1.7494,1.7504,1.7503,1.7518,1.7522,1.7521,1.752,1.7521,1.752,1.7523,1.752,1.7521,1.7521,1.7521,1.7521,0,1.744,1.7441,1.746,1.7466,1.7468,1.7481,1.7485,1.7496,1.7497,1.751,1.7513,1.7515,1.7526,1.7526,1.7539,1.7538,1.7556,1.7555,1.7554,1.7553,1.7563,1.7562,1.7603,1.7607,1.7576,1.7576,1.7576,0,1.7461,1.7474,1.748,1.7487,1.7491,1.7503,1.7509,1.7508,1.7515,1.7523,1.7531,1.7542,1.755,1.7568,1.757,1.7579,1.7576,1.759,1.7578,1.7576,1.7574,1.7572,1.7572,1.7592,1.7592,1.7593,1.7593,0,1.7497,1.7496,1.7506,1.7516,1.7524,1.7531,1.7538,1.7544,1.7543,1.7551,1.7562,1.7568,1.758,1.759,1.7599,1.7602,1.7596,1.7597,1.76,1.7599,1.7597,1.7596,1.7558,1.7596,1.7595,1.7595,1.7595,1.7595,1.7523,1.7532,1.7538,1.7548,1.7553,1.7559,1.7568,1.757,1.7579,1.7589,1.7587,1.7599,1.7604,1.7615,1.7619,1.7627,1.7622,1.7627,1.7627,1.7628,1.7628,1.7597,1.7629,1.7629,1.7629,1.7629,1.7629,0,1.7556,1.7559,1.7569,1.7578,1.7586,1.7581,1.7587,1.7594,1.7604,1.761,1.7617,1.7629,1.7638,1.764,1.7648,1.7654,1.7652,1.7656,1.7655,1.7655,1.7633,1.7629,1.7658,1.7658,1.7658,1.7658,1.7658,1.7658,1.7575,1.759,1.759,1.7607,1.761,1.7621,1.7625,1.7629,1.7633,1.7646,1.7654,1.7655,1.7659,1.7667,1.7674,1.7675,1.7677,1.7682,1.7681,1.766,1.7657,1.7654,1.765,1.7683,1.7683,1.7702,1.7702,1.7702]}]]